QPF
0.00 0.00 0.00 0.00 0.00 0.00 0.00 0.00 0.00 0.00 0.00 0.00 0.00 0.00 0.00 0.00 0.00 0.00 0.00 0.00 0.00 0.00 0.00 0.00 0.00 0.00 0.00 0.00 0.00 0.00 0.00 0.00 0.00 0.00 0.00 0.00 0.00 0.00 0.00 0.00 0.00 0.00 0.00 0.00
0.00 0.00 0.00 0.00 0.00 0.00 0.00 0.00 0.00 0.00 0.00 0.00 0.00 0.00 0.00 0.00 0.00 0.00 0.00 0.00 0.00 0.00 0.00 0.00 0.00 0.00 0.00 0.00 0.00 0.00 0.00 0.00 0.00 0.00 0.00 0.00 0.00 0.00 0.00 0.00 0.00 0.00 0.00 0.00
0.00 0.00 0.00 0.00 0.00 0.00 0.00 0.00 0.00 0.00 0.00 0.00 0.00 0.00 0.00 0.00 0.00 0.00 0.00 0.00 0.00 0.00 0.00 0.00 0.00 0.00 0.00 0.00 0.00 0.00 0.00 0.00 0.00 0.00 0.00 0.00 0.00 0.00 0.00 0.00 0.00 0.00 0.00 0.00
0.00 0.00 0.00 0.00 0.00 0.00 0.00 0.00 0.00 0.00 0.00 0.00 0.00 0.00 0.00 0.00 0.00 0.00 0.00 0.00 0.00 0.00 0.00 0.00 0.00 0.00 0.00 0.00 0.00 0.00 0.00 0.00 0.00 0.00 0.00 0.00 0.00 0.00 0.00 0.00 0.00 0.00 0.00 0.00
0.00 0.00 0.00 0.00 0.00 0.00 0.00 0.00 0.00 0.00 0.00 0.00 0.00 0.00 0.00 0.00 0.00 0.00 0.00 0.00 0.00 0.00 0.00 0.00 0.00 0.00 0.00 0.00 0.00 0.00 0.00 0.00 0.00 0.00 0.00 0.00 0.00 0.00 0.00 0.00 0.00 0.00 0.00 0.00
0.00 0.00 0.00 0.00 0.00 0.00 0.00 0.00 0.00 0.00 0.00 0.00 0.00 0.00 0.00 0.00 0.00 0.00 0.00 0.00 0.00 0.00 0.00 0.00 0.00 0.00 0.00 0.00 0.00 0.00 0.00 0.00 0.00 0.00 0.00 0.00 0.00 0.00 0.00 0.00 0.00 0.00 0.00 0.00
0.00 0.00 0.00 0.00 0.00 0.00 0.00 0.00 0.00 0.00 0.00 0.00 0.00 0.00 0.00 0.00 0.00 0.00 0.00 0.00 0.00 0.00 0.00 0.00 0.00 0.00 0.00 0.00 0.00 0.00 0.00 0.00 0.00 0.00 0.00 0.00 0.00 0.00 0.00 0.00 0.00 0.00 0.00 0.00
0.00 0.00 0.00 0.00 0.00 0.00 0.00 0.00 0.00 0.00 0.00 0.00 0.00 0.00 0.00 0.00 0.00 0.00 0.00 0.00 0.00 0.00 0.00 0.00 0.00 0.00 0.00 0.00 0.00 0.00 0.00 0.00 0.00 0.00 0.00 0.00 0.00 0.00 0.00 0.00 0.00 0.00 0.00 0.00
0.01 0.01 0.00 0.00 0.00 0.00 0.00 0.00 0.00 0.00 0.00 0.00 0.00 0.00 0.00 0.00 0.00 0.00 0.00 0.00 0.00 0.00 0.00 0.00 0.00 0.00 0.00 0.00 0.00 0.00 0.00 0.00 0.00 0.00 0.00 0.00 0.00 0.00 0.00 0.00 0.00 0.00 0.00 0.00
0.01 0.01 0.00 0.00 0.00 0.00 0.00 0.00 0.00 0.00 0.00 0.00 0.00 0.00 0.00 0.00 0.00 0.00 0.00 0.00 0.00 0.00 0.00 0.00 0.00 0.00 0.00 0.00 0.00 0.00 0.00 0.00 0.00 0.00 0.00 0.00 0.00 0.00 0.00 0.00 0.00 0.00 0.00 0.00
0.02 0.01 0.00 0.00 0.00 0.00 0.00 0.00 0.00 0.00 0.00 0.00 0.00 0.00 0.00 0.00 0.00 0.00 0.00 0.00 0.00 0.00 0.00 0.00 0.00 0.00 0.00 0.00 0.00 0.00 0.00 0.00 0.00 0.00 0.00 0.00 0.00 0.00 0.00 0.00 0.00 0.00 0.00 0.00
0.02 0.01 0.01 0.01 0.00 0.00 0.00 0.00 0.00 0.00 0.00 0.00 0.00 0.00 0.00 0.00 0.00 0.00 0.00 0.00 0.00 0.00 0.00 0.00 0.00 0.00 0.00 0.00 0.00 0.00 0.00 0.00 0.00 0.00 0.00 0.00 0.00 0.00 0.00 0.00 0.00 0.00 0.00 0.00
0.01 0.01 0.01 0.01 0.01 0.00 0.00 0.00 0.00 0.00 0.00 0.00 0.00 0.00 0.00 0.00 0.00 0.00 0.00 0.00 0.00 0.00 0.00 0.00 0.00 0.00 0.00 0.00 0.00 0.00 0.00 0.00 0.00 0.00 0.00 0.00 0.00 0.00 0.00 0.00 0.00 0.00 0.00 0.00
0.01 0.01 0.01 0.01 0.01 0.01 0.00 0.00 0.00 0.00 0.00 0.00 0.00 0.00 0.00 0.00 0.00 0.00 0.00 0.00 0.00 0.00 0.00 0.00 0.00 0.00 0.00 0.00 0.00 0.00 0.00 0.00 0.00 0.00 0.00 0.00 0.00 0.00 0.00 0.00 0.00 0.00 0.00 0.00
0.01 0.01 0.00 0.00 0.00 0.00 0.00 0.00 0.00 0.00 0.00 0.00 0.00 0.00 0.00 0.00 0.00 0.00 0.00 0.00 0.00 0.00 0.00 0.00 0.00 0.00 0.00 0.00 0.00 0.00 0.00 0.00 0.00 0.00 0.00 0.00 0.00 0.00 0.00 0.00 0.00 0.00 0.00 0.00
0.01 0.00 0.00 0.00 0.00 0.00 0.00 0.00 0.00 0.00 0.00 0.00 0.00 0.00 0.00 0.00 0.00 0.00 0.00 0.00 0.00 0.00 0.00 0.00 0.00 0.00 0.00 0.00 0.00 0.00 0.00 0.00 0.00 0.00 0.00 0.00 0.00 0.00 0.00 0.00 0.00 0.00 0.00 0.01
0.01 0.00 0.00 0.00 0.00 0.00 0.00 0.00 0.00 0.00 0.00 0.00 0.00 0.00 0.00 0.00 0.00 0.00 0.00 0.00 0.00 0.00 0.00 0.00 0.00 0.00 0.00 0.00 0.00 0.00 0.00 0.00 0.00 0.00 0.00 0.00 0.00 0.00 0.00 0.00 0.00 0.00 0.00 0.01
0.00 0.00 0.00 0.00 0.00 0.00 0.00 0.00 0.00 0.00 0.00 0.00 0.00 0.00 0.00 0.00 0.00 0.00 0.00 0.00 0.00 0.00 0.00 0.00 0.00 0.00 0.00 0.00 0.00 0.00 0.00 0.00 0.00 0.00 0.00 0.00 0.00 0.00 0.00 0.00 0.00 0.00 0.00 0.00
0.00 0.00 0.00 0.00 0.00 0.00 0.00 0.00 0.00 0.00 0.00 0.00 0.00 0.00 0.00 0.00 0.00 0.00 0.00 0.00 0.00 0.00 0.00 0.00 0.00 0.00 0.00 0.00 0.00 0.00 0.00 0.00 0.00 0.00 0.00 0.00 0.00 0.00 0.00 0.00 0.00 0.00 0.00 0.00
0.00 0.00 0.00 0.00 0.00 0.00 0.00 0.00 0.00 0.00 0.00 0.00 0.00 0.00 0.00 0.00 0.00 0.00 0.00 0.00 0.00 0.00 0.00 0.00 0.00 0.00 0.00 0.00 0.00 0.00 0.00 0.00 0.00 0.00 0.00 0.00 0.00 0.00 0.00 0.00 0.00 0.00 0.00 0.01
0.00 0.00 0.00 0.00 0.00 0.00 0.00 0.00 0.00 0.00 0.00 0.00 0.00 0.00 0.00 0.00 0.00 0.00 0.00 0.00 0.00 0.00 0.00 0.00 0.00 0.00 0.00 0.00 0.00 0.00 0.00 0.00 0.00 0.00 0.00 0.00 0.00 0.00 0.00 0.00 0.00 0.00 0.00 0.00
0.01 0.00 0.00 0.00 0.00 0.00 0.00 0.00 0.00 0.00 0.00 0.00 0.00 0.00 0.00 0.00 0.00 0.00 0.00 0.00 0.00 0.00 0.00 0.00 0.00 0.00 0.00 0.00 0.00 0.00 0.00 0.00 0.00 0.00 0.00 0.00 0.00 0.00 0.00 0.00 0.00 0.00 0.00 0.00
0.01 0.01 0.01 0.01 0.01 0.00 0.00 0.00 0.00 0.00 0.00 0.00 0.00 0.00 0.00 0.00 0.00 0.00 0.00 0.00 0.00 0.00 0.00 0.00 0.00 0.00 0.00 0.00 0.00 0.00 0.00 0.00 0.00 0.00 0.00 0.00 0.00 0.01 0.01 0.01 0.00 0.00 0.00 0.00
0.01 0.01 0.01 0.01 0.01 0.01 0.01 0.01 0.00 0.00 0.00 0.00 0.00 0.00 0.00 0.00 0.00 0.00 0.00 0.00 0.00 0.00 0.00 0.00 0.00 0.00 0.00 0.00 0.00 0.00 0.00 0.00 0.00 0.00 0.00 0.01 0.01 0.01 0.01 0.00 0.00 0.00 0.00 0.00
0.01 0.01 0.02 0.02 0.02 0.02 0.02 0.01 0.01 0.01 0.01 0.00 0.00 0.00 0.00 0.00 0.00 0.00 0.00 0.00 0.00 0.00 0.00 0.00 0.00 0.00 0.00 0.00 0.00 0.00 0.01 0.01 0.01 0.01 0.01 0.01 0.01 0.01 0.01 0.00 0.00 0.00 0.00 0.00
0.01 0.01 0.01 0.01 0.01 0.01 0.01 0.01 0.01 0.01 0.00 0.00 0.00 0.00 0.00 0.00 0.00 0.00 0.00 0.00 0.00 0.00 0.00 0.00 0.01 0.01 0.01 0.01 0.01 0.01 0.01 0.01 0.01 0.01 0.01 0.01 0.01 0.00 0.00 0.01 0.01 0.00 0.00 0.00
0.00 0.00 0.00 0.00 0.00 0.00 0.00 0.00 0.00 0.00 0.00 0.00 0.00 0.00 0.00 0.00 0.00 0.00 0.00 0.00 0.01 0.01 0.01 0.01 0.02 0.03 0.03 0.02 0.02 0.02 0.02 0.02 0.01 0.01 0.01 0.01 0.01 0.01 0.00 0.01 0.01 0.01 0.01 0.01
MSLP
1016.37 1016.74 1017.10 1017.45 1017.73 1017.90 1017.95 1017.85 1017.61 1017.26 1016.84 1016.40 1016.01 1015.73 1015.60 1015.64 1015.85 1016.23 1016.74 1017.34 1017.99 1018.66 1019.31 1019.93 1020.50 1021.03 1021.49 1021.90 1022.25 1022.54 1022.75 1022.90 1022.97 1022.99 1022.96 1022.91 1022.84 1022.78 1022.74 1022.71 1022.69 1022.66 1022.61 1022.52
1016.58 1016.82 1017.00 1017.12 1017.14 1017.07 1016.90 1016.64 1016.30 1015.91 1015.52 1015.16 1014.87 1014.69 1014.65 1014.75 1015.00 1015.37 1015.86 1016.43 1017.07 1017.74 1018.43 1019.12 1019.80 1020.44 1021.03 1021.55 1021.99 1022.33 1022.57 1022.72 1022.77 1022.75 1022.69 1022.62 1022.55 1022.50 1022.48 1022.49 1022.52 1022.53 1022.52 1022.46
1016.89 1016.97 1016.94 1016.81 1016.58 1016.26 1015.86 1015.43 1014.98 1014.56 1014.19 1013.89 1013.71 1013.63 1013.68 1013.85 1014.14 1014.52 1015.00 1015.56 1016.18 1016.86 1017.57 1018.32 1019.06 1019.79 1020.48 1021.08 1021.59 1021.99 1022.25 1022.41 1022.46 1022.43 1022.36 1022.29 1022.23 1022.21 1022.23 1022.28 1022.35 1022.40 1022.42 1022.38
1017.21 1017.11 1016.86 1016.48 1016.00 1015.44 1014.84 1014.25 1013.71 1013.25 1012.90 1012.67 1012.57 1012.59 1012.73 1012.97 1013.30 1013.70 1014.18 1014.73 1015.34 1016.02 1016.75 1017.52 1018.31 1019.10 1019.84 1020.51 1021.07 1021.50 1021.80 1021.98 1022.05 1022.04 1021.99 1021.94 1021.92 1021.94 1022.01 1022.10 1022.20 1022.28 1022.30 1022.26
1017.39 1017.11 1016.65 1016.06 1015.35 1014.60 1013.84 1013.13 1012.53 1012.05 1011.72 1011.54 1011.52 1011.62 1011.84 1012.14 1012.51 1012.93 1013.41 1013.95 1014.55 1015.22 1015.95 1016.73 1017.54 1018.36 1019.14 1019.84 1020.44 1020.91 1021.24 1021.45 1021.56 1021.59 1021.59 1021.60 1021.63 1021.69 1021.80 1021.92 1022.04 1022.12 1022.14 1022.08
1017.31 1016.86 1016.23 1015.47 1014.61 1013.73 1012.88 1012.11 1011.47 1011.00 1010.71 1010.58 1010.62 1010.79 1011.05 1011.39 1011.79 1012.22 1012.70 1013.23 1013.81 1014.46 1015.18 1015.96 1016.77 1017.59 1018.38 1019.11 1019.73 1020.23 1020.60 1020.86 1021.02 1021.11 1021.17 1021.23 1021.32 1021.43 1021.57 1021.71 1021.83 1021.90 1021.89 1021.79
1016.86 1016.28 1015.54 1014.68 1013.76 1012.84 1011.97 1011.21 1010.60 1010.16 1009.91 1009.84 1009.92 1010.12 1010.41 1010.76 1011.15 1011.58 1012.04 1012.55 1013.11 1013.75 1014.45 1015.21 1016.01 1016.82 1017.61 1018.34 1018.98 1019.51 1019.92 1020.22 1020.43 1020.59 1020.71 1020.84 1020.97 1021.12 1021.27 1021.41 1021.51 1021.54 1021.48 1021.33
1016.02 1015.36 1014.58 1013.71 1012.81 1011.93 1011.13 1010.44 1009.90 1009.54 1009.35 1009.31 1009.41 1009.62 1009.90 1010.23 1010.60 1011.00 1011.44 1011.92 1012.46 1013.07 1013.75 1014.50 1015.28 1016.08 1016.86 1017.59 1018.23 1018.77 1019.21 1019.55 1019.82 1020.03 1020.21 1020.37 1020.54 1020.70 1020.85 1020.97 1021.02 1021.00 1020.89 1020.68
1014.83 1014.15 1013.39 1012.59 1011.79 1011.04 1010.36 1009.80 1009.38 1009.11 1008.98 1008.98 1009.08 1009.27 1009.51 1009.80 1010.12 1010.48 1010.88 1011.33 1011.85 1012.44 1013.11 1013.84 1014.61 1015.39 1016.16 1016.87 1017.51 1018.05 1018.51 1018.88 1019.17 1019.42 1019.63 1019.82 1019.99 1020.15 1020.27 1020.34 1020.34 1020.26 1020.09 1019.83
1013.41 1012.76 1012.07 1011.39 1010.74 1010.16 1009.66 1009.27 1008.98 1008.81 1008.74 1008.76 1008.85 1009.00 1009.19 1009.42 1009.68 1009.99 1010.35 1010.78 1011.29 1011.87 1012.53 1013.25 1014.01 1014.77 1015.52 1016.21 1016.83 1017.36 1017.81 1018.18 1018.49 1018.74 1018.96 1019.15 1019.31 1019.44 1019.52 1019.54 1019.48 1019.34 1019.11 1018.82
1011.92 1011.30 1010.72 1010.18 1009.71 1009.32 1009.00 1008.77 1008.62 1008.54 1008.52 1008.56 1008.63 1008.73 1008.86 1009.03 1009.24 1009.51 1009.84 1010.26 1010.76 1011.35 1012.02 1012.73 1013.48 1014.23 1014.94 1015.60 1016.19 1016.70 1017.12 1017.47 1017.76 1018.00 1018.20 1018.37 1018.50 1018.59 1018.62 1018.59 1018.48 1018.28 1018.02 1017.70
1010.50 1009.94 1009.45 1009.05 1008.74 1008.51 1008.36 1008.27 1008.23 1008.22 1008.24 1008.27 1008.32 1008.38 1008.46 1008.58 1008.76 1009.00 1009.33 1009.75 1010.27 1010.87 1011.55 1012.27 1013.00 1013.72 1014.41 1015.02 1015.57 1016.03 1016.41 1016.73 1016.98 1017.20 1017.36 1017.50 1017.59 1017.63 1017.62 1017.54 1017.39 1017.16 1016.88 1016.55
1009.30 1008.77 1008.35 1008.05 1007.85 1007.75 1007.71 1007.72 1007.75 1007.79 1007.83 1007.85 1007.87 1007.90 1007.95 1008.05 1008.21 1008.46 1008.80 1009.24 1009.79 1010.41 1011.10 1011.81 1012.53 1013.23 1013.87 1014.44 1014.93 1015.34 1015.67 1015.94 1016.16 1016.33 1016.47 1016.57 1016.63 1016.63 1016.58 1016.46 1016.28 1016.04 1015.75 1015.43
1008.40 1007.88 1007.50 1007.24 1007.10 1007.05 1007.07 1007.12 1007.18 1007.24 1007.27 1007.29 1007.29 1007.30 1007.35 1007.44 1007.62 1007.88 1008.25 1008.73 1009.30 1009.94 1010.63 1011.34 1012.03 1012.69 1013.28 1013.79 1014.23 1014.59 1014.88 1015.11 1015.30 1015.44 1015.55 1015.62 1015.65 1015.63 1015.56 1015.41 1015.21 1014.96 1014.67 1014.36
1007.86 1007.32 1006.92 1006.66 1006.52 1006.47 1006.48 1006.52 1006.57 1006.61 1006.63 1006.64 1006.63 1006.65 1006.70 1006.82 1007.02 1007.31 1007.71 1008.22 1008.80 1009.45 1010.13 1010.81 1011.46 1012.07 1012.61 1013.07 1013.46 1013.77 1014.03 1014.23 1014.40 1014.53 1014.63 1014.70 1014.71 1014.67 1014.58 1014.42 1014.20 1013.94 1013.64 1013.34
1007.66 1007.09 1006.65 1006.34 1006.14 1006.04 1006.00 1006.00 1006.00 1006.01 1006.00 1006.00 1005.99 1006.02 1006.09 1006.24 1006.47 1006.79 1007.21 1007.72 1008.30 1008.93 1009.57 1010.20 1010.80 1011.35 1011.84 1012.25 1012.60 1012.89 1013.13 1013.33 1013.50 1013.64 1013.74 1013.80 1013.81 1013.77 1013.66 1013.48 1013.24 1012.96 1012.65 1012.33
1007.78 1007.17 1006.67 1006.29 1006.01 1005.82 1005.70 1005.62 1005.57 1005.53 1005.50 1005.48 1005.48 1005.52 1005.61 1005.78 1006.03 1006.36 1006.77 1007.26 1007.81 1008.38 1008.96 1009.52 1010.06 1010.54 1010.97 1011.34 1011.66 1011.94 1012.19 1012.41 1012.60 1012.76 1012.88 1012.95 1012.96 1012.90 1012.77 1012.56 1012.30 1011.98 1011.64 1011.29
1008.15 1007.50 1006.94 1006.48 1006.11 1005.83 1005.62 1005.46 1005.35 1005.26 1005.20 1005.16 1005.17 1005.22 1005.32 1005.49 1005.73 1006.04 1006.42 1006.85 1007.32 1007.81 1008.31 1008.78 1009.23 1009.65 1010.03 1010.37 1010.69 1010.98 1011.24 1011.49 1011.71 1011.90 1012.04 1012.12 1012.12 1012.04 1011.88 1011.63 1011.32 1010.96 1010.57 1010.17
1008.66 1007.99 1007.39 1006.86 1006.42 1006.05 1005.76 1005.53 1005.35 1005.22 1005.14 1005.09 1005.09 1005.13 1005.22 1005.37 1005.58 1005.84 1006.15 1006.49 1006.86 1007.24 1007.63 1008.00 1008.37 1008.72 1009.06 1009.38 1009.70 1010.01 1010.31 1010.59 1010.85 1011.06 1011.21 1011.28 1011.26 1011.15 1010.93 1010.64 1010.27 1009.84 1009.40 1008.96
1009.21 1008.54 1007.91 1007.33 1006.83 1006.40 1006.05 1005.76 1005.54 1005.38 1005.26 1005.20 1005.18 1005.20 1005.27 1005.38 1005.52 1005.70 1005.91 1006.15 1006.40 1006.67 1006.94 1007.22 1007.51 1007.81 1008.11 1008.43 1008.76 1009.09 1009.42 1009.73 1010.00 1010.22 1010.36 1010.41 1010.35 1010.18 1009.91 1009.55 1009.12 1008.64 1008.14 1007.65
1009.68 1009.02 1008.38 1007.78 1007.24 1006.77 1006.37 1006.05 1005.80 1005.61 1005.48 1005.39 1005.35 1005.34 1005.36 1005.41 1005.48 1005.58 1005.68 1005.81 1005.95 1006.10 1006.28 1006.48 1006.70 1006.96 1007.24 1007.56 1007.90 1008.25 1008.59 1008.91 1009.18 1009.38 1009.49 1009.49 1009.38 1009.14 1008.81 1008.38 1007.89 1007.36 1006.82 1006.30
1009.97 1009.32 1008.68 1008.07 1007.52 1007.03 1006.62 1006.27 1006.00 1005.80 1005.64 1005.54 1005.47 1005.42 1005.40 1005.39 1005.39 1005.39 1005.41 1005.44 1005.48 1005.55 1005.66 1005.80 1005.98 1006.21 1006.49 1006.80 1007.14 1007.49 1007.83 1008.14 1008.38 1008.54 1008.59 1008.52 1008.34 1008.04 1007.63 1007.15 1006.61 1006.05 1005.49 1004.95
1009.99 1009.36 1008.74 1008.14 1007.58 1007.09 1006.67 1006.32 1006.04 1005.82 1005.66 1005.53 1005.44 1005.36 1005.30 1005.24 1005.18 1005.12 1005.07 1005.03 1005.02 1005.04 1005.10 1005.22 1005.38 1005.61 1005.88 1006.19 1006.52 1006.85 1007.16 1007.42 1007.61 1007.70 1007.68 1007.53 1007.27 1006.89 1006.43 1005.91 1005.34 1004.77 1004.21 1003.68
1009.74 1009.13 1008.52 1007.93 1007.39 1006.91 1006.49 1006.15 1005.86 1005.64 1005.47 1005.33 1005.22 1005.12 1005.03 1004.94 1004.85 1004.76 1004.68 1004.62 1004.59 1004.60 1004.66 1004.77 1004.94 1005.16 1005.43 1005.72 1006.03 1006.33 1006.58 1006.77 1006.88 1006.88 1006.77 1006.54 1006.20 1005.77 1005.26 1004.71 1004.14 1003.58 1003.04 1002.53
1009.26 1008.67 1008.08 1007.51 1006.99 1006.52 1006.11 1005.77 1005.50 1005.27 1005.10 1004.95 1004.84 1004.73 1004.63 1004.54 1004.45 1004.37 1004.30 1004.25 1004.24 1004.27 1004.34 1004.47 1004.66 1004.88 1005.14 1005.41 1005.67 1005.91 1006.09 1006.19 1006.20 1006.10 1005.89 1005.58 1005.17 1004.70 1004.17 1003.61 1003.05 1002.51 1002.00 1001.53
1008.66 1008.08 1007.52 1006.97 1006.47 1006.03 1005.64 1005.31 1005.03 1004.82 1004.64 1004.50 1004.39 1004.29 1004.21 1004.14 1004.07 1004.02 1003.99 1003.98 1004.01 1004.08 1004.19 1004.35 1004.54 1004.76 1004.99 1005.22 1005.42 1005.57 1005.66 1005.66 1005.56 1005.37 1005.07 1004.69 1004.23 1003.72 1003.19 1002.64 1002.11 1001.60 1001.12 1000.66
1008.07 1007.53 1006.99 1006.48 1006.01 1005.58 1005.21 1004.89 1004.63 1004.41 1004.25 1004.12 1004.02 1003.94 1003.88 1003.84 1003.82 1003.81 1003.83 1003.88 1003.96 1004.07 1004.21 1004.38 1004.57 1004.77 1004.95 1005.11 1005.23 1005.29 1005.26 1005.16 1004.96 1004.68 1004.31 1003.87 1003.38 1002.86 1002.33 1001.81 1001.30 1000.82 1000.36 999.90
Thickness
5702 5709 5709 5709 5708 5702 5697 5696 5689 5697 5700 5715 5719 5719 5718 5714 5709 5705 5702 5699 5697 5693 5690 5688 5687 5685 5684 5682 5681 5679 5676 5673 5671 5670 5668 5666 5664 5662 5661 5659 5657 5655 5652 5650
5702 5708 5708 5706 5711 5706 5704 5704 5701 5704 5708 5724 5723 5718 5714 5711 5709 5705 5703 5700 5697 5694 5690 5687 5685 5683 5680 5678 5676 5674 5671 5668 5666 5664 5662 5660 5658 5656 5654 5651 5649 5647 5645 5643
5686 5696 5703 5697 5712 5712 5710 5712 5709 5705 5718 5723 5717 5716 5716 5714 5711 5709 5706 5702 5698 5694 5691 5687 5684 5681 5677 5675 5671 5668 5666 5663 5661 5658 5655 5653 5651 5648 5646 5643 5641 5639 5637 5635
5678 5689 5682 5706 5725 5723 5718 5719 5718 5721 5725 5723 5723 5722 5721 5718 5714 5710 5707 5702 5698 5693 5689 5685 5681 5677 5674 5670 5666 5663 5660 5657 5654 5651 5648 5646 5643 5640 5638 5635 5633 5631 5629 5626
5667 5672 5682 5705 5720 5719 5714 5716 5724 5721 5722 5720 5718 5716 5714 5717 5716 5713 5709 5704 5699 5694 5688 5682 5677 5673 5669 5664 5660 5657 5654 5651 5648 5645 5642 5639 5636 5633 5631 5628 5625 5623 5621 5618
5663 5670 5673 5702 5722 5725 5719 5710 5727 5723 5719 5713 5712 5702 5710 5718 5715 5710 5705 5700 5695 5689 5683 5678 5673 5668 5663 5658 5654 5651 5649 5646 5643 5639 5635 5632 5630 5627 5624 5621 5618 5616 5613 5611
5663 5666 5679 5708 5717 5718 5698 5707 5727 5724 5720 5713 5712 5715 5718 5717 5712 5707 5701 5696 5690 5684 5679 5674 5669 5663 5658 5653 5650 5648 5644 5640 5636 5633 5629 5626 5623 5619 5616 5613 5610 5607 5605 5603
5659 5662 5678 5711 5710 5705 5711 5722 5724 5722 5718 5714 5713 5713 5712 5710 5705 5700 5695 5690 5685 5679 5673 5668 5663 5658 5653 5648 5646 5642 5637 5633 5629 5625 5623 5620 5615 5612 5608 5605 5601 5598 5595 5594
5675 5685 5701 5705 5709 5715 5716 5715 5717 5716 5716 5712 5708 5705 5704 5700 5696 5693 5689 5684 5679 5673 5667 5661 5657 5653 5648 5644 5640 5635 5629 5625 5621 5618 5614 5611 5607 5603 5599 5596 5592 5589 5586 5584
5675 5688 5697 5701 5705 5709 5711 5711 5713 5713 5711 5708 5703 5700 5696 5692 5688 5684 5681 5676 5671 5666 5660 5654 5649 5646 5643 5638 5633 5627 5622 5617 5613 5609 5606 5602 5598 5595 5590 5586 5583 5580 5578 5575
5673 5684 5690 5698 5700 5703 5705 5705 5704 5704 5704 5701 5698 5693 5690 5685 5682 5678 5673 5668 5664 5659 5654 5649 5644 5639 5635 5631 5625 5619 5614 5610 5605 5601 5597 5593 5590 5586 5582 5579 5575 5572 5570 5567
5674 5684 5682 5688 5696 5697 5696 5695 5695 5694 5692 5691 5690 5686 5682 5678 5674 5670 5665 5661 5656 5651 5647 5642 5637 5632 5628 5623 5618 5612 5606 5601 5597 5592 5588 5584 5580 5577 5575 5571 5569 5567 5564 5560
5679 5682 5681 5684 5686 5687 5686 5686 5686 5685 5684 5681 5679 5677 5673 5669 5665 5661 5657 5652 5649 5645 5640 5635 5629 5624 5620 5616 5610 5605 5599 5595 5589 5584 5579 5575 5571 5567 5564 5564 5561 5558 5555 5552
5671 5671 5671 5673 5673 5675 5675 5675 5674 5673 5672 5671 5668 5666 5662 5658 5654 5651 5648 5645 5641 5636 5631 5626 5620 5616 5612 5607 5602 5597 5592 5588 5582 5576 5571 5567 5563 5558 5554 5550 5548 5546 5545 5541
5660 5661 5662 5664 5663 5663 5663 5662 5660 5658 5658 5657 5656 5653 5651 5648 5645 5643 5640 5636 5630 5625 5620 5616 5611 5607 5603 5598 5593 5588 5583 5578 5574 5568 5563 5559 5554 5549 5544 5540 5537 5534 5533 5531
5649 5650 5650 5651 5650 5650 5650 5649 5647 5646 5645 5645 5643 5642 5640 5638 5635 5632 5628 5624 5619 5614 5610 5606 5602 5599 5594 5589 5583 5578 5573 5572 5566 5560 5554 5549 5544 5539 5535 5531 5527 5524 5521 5520
5636 5636 5637 5637 5638 5638 5638 5638 5637 5636 5635 5634 5633 5631 5628 5625 5621 5618 5615 5612 5609 5605 5601 5596 5593 5589 5584 5579 5573 5569 5564 5560 5559 5553 5545 5541 5536 5531 5527 5522 5518 5515 5513 5511
5629 5630 5629 5628 5627 5627 5626 5626 5625 5624 5623 5623 5622 5619 5616 5612 5609 5606 5603 5599 5595 5591 5588 5585 5582 5578 5573 5569 5564 5559 5554 5550 5545 5541 5537 5532 5527 5522 5518 5513 5510 5507 5504 5501
5617 5618 5617 5617 5617 5616 5615 5614 5613 5612 5611 5610 5608 5606 5603 5601 5598 5594 5590 5585 5581 5578 5577 5574 5572 5567 5562 5558 5554 5549 5544 5539 5535 5531 5527 5523 5518 5513 5508 5504 5500 5497 5494 5491
5605 5606 5605 5605 5604 5603 5602 5601 5601 5599 5598 5596 5594 5591 5588 5586 5583 5580 5576 5572 5570 5569 5567 5563 5559 5555 5551 5547 5544 5538 5533 5529 5525 5521 5516 5511 5507 5503 5499 5495 5491 5488 5484 5481
5590 5591 5592 5591 5590 5589 5588 5587 5586 5585 5584 5582 5580 5577 5574 5571 5569 5565 5561 5558 5559 5556 5554 5552 5547 5543 5539 5536 5533 5527 5522 5518 5513 5509 5505 5501 5497 5493 5489 5485 5481 5478 5474 5471
5575 5576 5577 5577 5576 5575 5573 5572 5571 5570 5568 5566 5565 5562 5559 5555 5553 5551 5549 5547 5546 5544 5540 5537 5534 5532 5529 5526 5520 5515 5511 5507 5502 5498 5494 5489 5485 5482 5479 5475 5471 5468 5465 5462
5561 5561 5562 5561 5560 5559 5558 5557 5556 5555 5553 5551 5549 5547 5544 5542 5539 5535 5534 5534 5532 5531 5527 5524 5522 5521 5518 5513 5507 5503 5499 5495 5491 5488 5484 5479 5475 5471 5468 5465 5462 5459 5456 5453
5547 5547 5547 5546 5545 5544 5543 5542 5541 5540 5538 5537 5535 5532 5529 5526 5524 5523 5521 5521 5519 5517 5513 5511 5509 5507 5504 5499 5494 5490 5486 5483 5480 5476 5473 5469 5465 5461 5458 5454 5452 5449 5447 5444
5533 5532 5531 5530 5529 5529 5528 5527 5526 5524 5523 5521 5520 5518 5515 5513 5510 5510 5507 5505 5504 5502 5499 5497 5496 5493 5489 5484 5481 5477 5474 5471 5467 5464 5461 5458 5455 5451 5448 5445 5442 5440 5437 5435
5517 5517 5517 5516 5515 5514 5513 5511 5510 5509 5507 5505 5505 5503 5501 5499 5496 5494 5492 5490 5488 5487 5484 5481 5478 5476 5473 5470 5467 5464 5461 5459 5456 5452 5449 5447 5444 5441 5438 5435 5433 5430 5428 5426
5503 5502 5501 5501 5500 5499 5498 5496 5494 5493 5492 5490 5489 5488 5486 5483 5481 5479 5477 5474 5472 5470 5468 5466 5463 5460 5458 5455 5453 5450 5448 5446 5443 5441 5438 5436 5433 5431 5428 5426 5424 5421 5419 5417